Tracking 19905 objects as of 17-Oct-2019
HD Live streaming from Space Station
objects crossing your sky now

WESTFORD NEEDLES

Track WESTFORD NEEDLES now!
10-day predictions
WESTFORD NEEDLES is classified as:


NORAD ID: 20504
Int'l Code: 1963-014FD
Perigee: 951.5 km
Apogee: 6,048.8 km
Inclination: 85.2 °
Period: 162.7 minutes
Semi major axis: 9871 km
RCS: 0.1216 m2 (medium)
Launch date: May 9, 1963
Source: United States (US)
Launch site: AIR FORCE WESTERN TEST RANGE (AFWTR)
aabbcc
Your satellite tracking list
Your tracking list is empty




NASA's NSSDC Master Catalog

Two Line Element Set (TLE):
1 20504U 63014FD  19288.66492205 +.00009429 +00000-0 +76798-1 0  9999
2 20504 085.1834 166.2301 2581938 074.9053 312.0838 08.85221615209177
Source of the keplerian elements: AFSPC